Location: Skalnate Pleso
(49.1889°N, 20.2450°E)
Time: 13:08:11
(UTC+01:00)

BREEZE-M DEB (TANK) - Pass Details

Date: 19 November 2019
Orbit: 283 x 20938 km, 49.4° (Epoch: 10 December)

Event Time Altitude Azimuth Distance (km) Brightness Sun altitude
Exits shadow 05:48:13 18° 276° (W) 896 2.8 -10.8°
Maximum altitude 05:49:43 88° 10° (N) 293 0.9 -10.5°
Drops below altitude 10° 05:51:45 10° 96° (E) 1,173 5.5 -10.2°
Sets 05:53:46 0° 96° (E) 2,285 7.4 -9.9°
